📊 Raw Sensor Data

Showing records 38426 to 38450 of 84,929 total

ID Distance (ft) Battery V Battery A Int Temp (°F) Int Humid (%) Ext Temp (°F) Solar V RSSI SNR Time Stamp
46516 14.9 3.96 -5 55 44 56 0.00 -70 8 07/17/2025 01:45 AM
46515 14.9 3.81 -5 55 44 57 0.10 -73 8 07/17/2025 01:30 AM
46514 14.9 3.81 -5 55 44 57 0.00 -71 8 07/17/2025 01:15 AM
46513 14.9 3.83 -5 56 44 57 0.00 -71 8 07/17/2025 01:00 AM
46512 14.9 3.95 -5 56 44 57 0.10 -71 8 07/17/2025 12:45 AM
46511 14.9 3.79 -5 56 45 57 0.00 -71 8 07/17/2025 12:30 AM
46510 14.9 3.80 -5 56 45 57 0.00 -72 7 07/17/2025 12:15 AM
46509 14.9 3.96 -5 56 45 57 0.00 -70 8 07/17/2025 12:00 AM
46508 14.9 3.81 -5 57 45 57 0.00 -71 8 07/16/2025 11:45 PM
46507 14.9 3.78 -5 57 45 58 0.00 -71 8 07/16/2025 11:30 PM
46506 14.9 3.83 -5 58 46 58 0.10 -72 8 07/16/2025 11:15 PM
46505 14.9 3.96 -5 58 46 58 0.00 -71 8 07/16/2025 11:00 PM
46504 14.9 3.81 -5 58 46 59 0.00 -71 8 07/16/2025 10:45 PM
46503 14.9 3.81 -5 59 47 59 0.10 -70 8 07/16/2025 10:30 PM
46502 14.9 3.97 -5 59 47 60 0.00 -70 8 07/16/2025 10:15 PM
46501 14.9 3.97 -5 60 48 60 0.00 -70 8 07/16/2025 10:00 PM
46500 14.9 3.97 -5 61 48 61 0.00 -71 7 07/16/2025 09:45 PM
46499 14.9 3.96 -5 62 49 61 0.00 -70 8 07/16/2025 09:30 PM
46498 14.9 3.80 -35 63 50 62 0.00 -69 8 07/16/2025 09:15 PM
46497 14.9 3.96 -5 64 52 63 0.00 -70 8 07/16/2025 09:00 PM
46496 14.9 3.97 -5 65 53 64 1.50 -70 8 07/16/2025 08:45 PM
46495 14.9 3.78 -10 68 54 65 2.10 -70 8 07/16/2025 08:30 PM
46494 14.9 3.78 0 72 53 68 4.50 -70 8 07/16/2025 08:15 PM
46493 15.0 4.01 0 76 52 71 4.50 -72 6 07/16/2025 08:00 PM
46492 15.0 4.04 6 79 52 73 4.50 -69 8 07/16/2025 07:45 PM